www.pogodaiklimat.ru

Погода и климат >> Архив погоды >> Иран >> Bandarabbass


ПОГОДА в Bandarabbass

  • Прогноз погоды в Bandarabbass
  • Монитор погоды в Bandarabbass
  • Климат города

АРХИВ ПОГОДЫ в Bandarabbass

Время (UTC), дата Ветер
(напр.,м/с)
 
Видим.   Явления Облачность Т
(С)
Тd
(С)
f
(%)
Тe
(С)
Тes
(С)
Комфортность P
(гПа)
Po
(гПа)
Тmin
(С)
Tmax
(С)
R
(мм)
R24
(мм)
S
(см)
00 12.12 С 2 6000 м мгла ясно +12.9 +8.5 75 +12 +12 1014.0 1012.8
03 12.12 СЗ 3 6000 м дымка 1/1 600 м
[St]
+12.4 +9.4 82 +11 +11 1014.7 1013.5 +11.4
06 12.12 С 3 6000 м мгла ясно +21.3 +11.2 53 +23 +28 комфорт 1016.9 1015.7
09 12.12 В 3 7000 м мгла ясно +25.7 +8.8 34 +26 +33 жарко 1014.8 1013.7
12 12.12 ЮЗ 4 7000 м мгла ясно +24.4 +11.1 43 +26 +27 жарко 1014.5 1013.4
15 12.12 штиль 0 7000 м мгла ясно +16.8 +8.4 58 +17 +17 1016.3 1015.1 +26.2
18 12.12 С 4 6000 м мгла ясно +15.9 +0.2 34 +15 +15 1017.8 1016.6
21 12.12 С 3 6000 м мгла ясно +15.7 -5.7 22 +15 +15 1018.2 1017.0
00 13.12 СВ 3 6000 м мгла ясно +14.3 -8.0 21 +14 +14 1018.2 1017.0
03 13.12 С 3 6000 м мгла ясно +14.6 -7.9 20 +14 +14 1019.1 1017.9 +13.6
06 13.12 СВ 8 5000 м пыльный позёмок ясно +20.8 -7.5 14 +20 +21 1020.0 1018.8
09 13.12 СВ 4 5000 м мгла ясно +23.8 -7.8 12 +22 +27 комфорт 1018.3 1017.1
12 13.12 ЮВ 4 7000 м мгла ясно +24.7 -1.1 18 +23 +24 комфорт 1017.0 1015.8
15 13.12 СЗ 2 8000 м мгла ясно +14.7 +0.9 39 +15 +15 1017.4 1016.2 +25.3
18 13.12 С 3 8000 м мгла ясно +14.8 -5.3 25 +14 +14 1018.4 1017.3
21 13.12 С 2 10 км ясно +12.9 -6.6 25 +13 +13 1018.0 1016.8
00 14.12 С 2 10 км ясно +9.5 -5.9 33 +9 +9 1017.7 1016.5
03 14.12 С 4 10 км ясно +10.3 -7.2 28 +8 +8 1018.8 1017.6 +7.4
06 14.12 СВ 5 12 км 3/0
[Ci fib]
+19.4 -6.4 17 +19 +22 1020.7 1019.5
09 14.12 С 3 12 км 3/0
[Ci fib]
+24.6 -4.2 14 +22 +29 комфорт 1018.7 1017.5
12 14.12 Ю 4 12 км ясно +23.6 +8.2 37 +24 +25 комфорт 1017.3 1016.2
15 14.12 З 2 10 км ясно +16.2 +8.6 61 +16 +16 1018.2 1017.0 +25.4
18 14.12 СЗ 4 10 км ясно +14.8 +8.7 67 +14 +14 1018.5 1017.3
21 14.12 СВ 2 10 км 1/1 900 м
[Sc diur, vesp]
+13.7 +7.1 64 +13 +13 1018.2 1017.0
00 15.12 С 3 10 км ясно +13.2 +5.8 61 +12 +12 1017.8 1016.6
03 15.12 СВ 2 8000 м мгла 1/1 750 м
[Cu hum]
+11.4 +4.0 60 +11 +11 1018.3 1017.1 +11.2
06 15.12 С 3 10 км 9/1 750 м
[Sc Ac As]
+20.0 +7.7 45 +21 +23 комфорт 1020.7 1019.6
09 15.12 Ю 2 10 км 8/1 750 м
[Sc Ac As]
+23.2 +9.1 41 +25 +28 комфорт 1019.3 1018.1
12 15.12 В 3 10 км 8/1 750 м
[Sc Ac As]
+22.7 +9.8 44 +24 +25 комфорт 1018.5 1017.3
15 15.12 С 3 7000 м мгла 6/5 750 м
[Sc Ac trans Ci sp]
+18.6 +10.8 60 +19 +19 1019.2 1018.0 +24.5
18 15.12 С 3 7000 м мгла 8/3 750 м
[Sc Ac trans]
+17.2 +11.3 68 +17 +17 1020.0 1018.9
21 15.12 С 2 10 км 5/3 900 м
[Sc Ac trans]
+17.1 +10.5 65 +17 +17 1019.5 1018.3
00 16.12 С 2 7000 м мгла 5/3 900 м
[Sc Ac trans]
+18.5 +12.4 68 +20 +20 1019.2 1018.1
03 16.12 С 3 10 км 9/3 750 м
[Cb calv Ac trans Cs]
+18.7 +12.8 69 +20 +20 1019.9 1018.8 +11.0
06 16.12 штиль 0 8000 м гроза, ливневой дождь 10/8 600 м
[Cb cap Ac As Cs]
+20.2 +18.3 89 +23 +24 комфорт 1021.9 1020.8
09 16.12 СЗ 4 7000 м гроза, ливневой дождь 10/6 750 м
[Cb cap Ac As]
+17.5 +13.0 75 +17 +18 1020.7 1019.6
12 16.12 СЗ 3 8000 м слабый дождь {гроза} 9/4 750 м
[Sc Ac As Ci fib]
+18.4 +14.0 76 +19 +20 1019.6 1018.5 2
15 16.12 З 3 7000 м дымка {дождь} 8/4 750 м
[Sc Ac und]
+17.2 +13.7 80 +17 +17 1021.1 1020.0 +20.3
18 16.12 СЗ 4 8000 м мгла {дождь} 3/1 900 м
[Sc Ac trans]
+17.0 +12.3 74 +17 +17 1020.3 1019.2 0.0
21 16.12 С 2 8000 м дымка 3/3 750 м
[Cb calv]
+12.6 +10.3 86 +12 +12 1020.0 1018.9
00 17.12 ЮВ 2 8000 м дымка 4/3 750 м
[Cb calv Ac trans]
+13.4 +10.9 85 +13 +13 1020.4 1019.3
03 17.12 СЗ 3 10 км 8/3 750 м
[Sc Ac As]
+13.8 +11.6 87 +13 +13 1021.0 1019.9 +12.2
06 17.12 СВ 4 10 км 9/3 750 м
[Sc diur, vesp Ac As]
+19.5 +12.6 64 +21 +22 комфорт 1022.5 1021.4
09 17.12 Ю 3 10 км 8/5 750 м
[Cb calv Ac As]
+23.5 +12.7 51 +26 +28 жарко 1020.5 1019.4
12 17.12 З 3 10 км 9/4 750 м
[Cb calv Ac As]
+22.1 +12.8 56 +25 +25 комфорт 1019.0 1017.9
15 17.12 З 2 10 км 6/1 750 м
[Cb calv Ac As]
+20.3 +13.9 67 +23 +23 комфорт 1019.5 1018.4 +23.8
18 17.12 ЮЗ 3 10 км 9/3 900 м
[Sc Ac trans Ci fib]
+19.7 +16.0 79 +22 +22 комфорт 1020.2 1019.1
21 17.12 СВ 2 10 км 6/3 900 м
[Sc Ac trans]
+17.9 +14.6 81 +18 +18 1020.1 1019.0
00 18.12 С 2 8000 м гроза без осадков 8/4 750 м
[Cb calv Ac und]
+16.8 +14.2 85 +17 +17 1020.1 1019.0
03 18.12 ЮЗ 2 8000 м дымка {гроза, дождь} 8/4 750 м
[Cb calv Ac As]
+16.2 +14.4 89 +16 +16 1020.8 1019.7 +16.1
06 18.12 З 2 7000 м мгла {гроза, дождь} 8/4 750 м
[Cb calv Ac As]
+19.6 +15.4 77 +22 +24 комфорт 1023.2 1022.1 0.3
09 18.12 Ю 3 10 км 4/4 750 м
[Cu hum Ci fib]
+23.1 +14.5 58 +27 +31 душно 1021.1 1020.0
12 18.12 Ю 3 10 км 6/5 900 м
[Sc diur, vesp Ac trans]
+22.0 +13.3 58 +25 +25 комфорт 1019.8 1018.6
15 18.12 З 2 10 км ясно +19.3 +12.5 65 +21 +21 комфорт 1020.7 1019.6 +24.2
18 18.12 З 2 10 км ясно +17.0 +11.3 69 +17 +17 1021.2 1020.1
21 18.12 СЗ 2 10 км ясно +16.6 +10.2 66 +17 +17 1019.8

 

Местоположение метеостанции Bandarabbass (Иран): широта 27.22 долгота 56.37 высота над уровнем моря 10 м.

В архиве по умолчанию представлена погода в Bandarabbass за последнюю неделю. Архивные данные за месяц целиком и за предыдущие месяцы, начиная с января 2011 года, Вы можете получить, выбрав интересующий диапазон дат из раскрывающегося списка и нажав кнопку "Ввод!".

Внимание! Время в таблицах - всемирное. Для получения местного времени необходимо прибавить поправку, которая в Bandarabbass равна 3.5 ч.

Смотрите также архив погоды в соседних городах и на ближайших метеорологических станциях:

Погода в Khasab (Оман) (113 км)
Погода в Khasab Airport (Оман) (118 км)
Погода в Kahnuj (Иран) (155 км)
Погода в Bandar Lengeh (Иран) (169 км)
Погода в Diba (Оман) (178 км)
Погода в Ras Al Khaimah Int Airport (ОАЭ) (183 км)
Погода в Abu Musa Island (Иран) (218 км)
Погода в Baft (Иран) (224 км)
Погода в Jask (Иран) (225 км)
Погода в Sharjah (ОАЭ) (227 км)

Пояснения к столбцам:

Ветер - указаны скорость ветра в м/с - средняя за 10 мин, порывы в срок и между сроками (в фигурных скобках) и направление, откуда дует ветер: С - северный, СВ - северо-восточный, В - восточный, ЮВ - юго-восточный, Ю - южный, ЮЗ - юго-западный, З - западный, СЗ - северо-западный.
Видимость - горизонтальная дальность видимости в метрах или километрах. При видимости от 1 до 10 км при отсутствии осадков обычно наблюдается дымка, при ухудшении видимости до 1 км и менее - туман. В сухую погоду видимость может ухудшаться дымом, пылью или мглою.
Явления - указаны атмосферные явления, наблюдавшиеся в срок или в последний час перед сроком; фигурными скобками обозначены явления, наблюдавшиеся между сроками (за 1-3 часа до срока); квадратными скобками обозначены град или гололедные отложения с указанием их диаметра в мм.
Облачность - указаны через наклонную черту общая и нижняя облачность в баллах и высота нижней границы облаков в метрах; квадратными скобками обозначены формы облаков: Ci - перистые, Cs - перисто-слоистые, Cc - перисто-кучевые, Ac - высококучевые, As - высокослоистые, Sc - слоисто-кучевые, Ns - слоисто-дождевые, Cu - кучевые, Cb - кучево-дождевые. Подробнее классификацию облаков см. в Атласе облаков (PDF).
T - Температура воздуха - температура, измеренная на высоте 2 м над землей.
Td - Температура точки росы - температура, при понижении до которой содержащийся в воздухе водяной пар достигнет насыщения.
f - Относительная влажность воздуха - влажноcть воздуха, измеренная на высоте 2 м над землей.
Te - Эффективная температура - температура, которую ощущает одетый по сезону человек в тени. Характеристика душности погоды. При расчете учитывается влияние влажности воздуха и скорости ветра на теплоощущения человека.
Tes - Эффективная температура на солнце - температура, которую ощущает человек, с поправкой на солнечный нагрев. Характеристика знойности погоды. Зависит от высоты солнца над горизонтом, облачности и скорости ветра. Ночью, в пасмурную погоду, а также при ветре 12 м/с и более поправка равна нулю.
P - Атмосферное давление - приведенное к уровню моря атмосферное давление.
Po - Атмосферное давление - измеренное на уровне метеостанции атмосферное давление.
Tmin - Минимальная температура - минимум температуры воздуха на высоте 2 м над землей.
Tmax - Максимальная температура - максимум температуры воздуха на высоте 2 м над землей.
R - Количество осадков - Количество выпавших осадков за период времени, мм. При наведении курсора мыши на число - период времени, за который выпало указанное количество осадков.
R24 - Количество осадков - Количество выпавших осадков за 24 часа, мм.
S - Снежный покров - Высота снежного покрова, см. При наведении курсора мыши на число - состояние снежного покрова и степень покрытия местности в баллах.